[[{"header":{"parameterUnit":"m.s-1","parameterCategory":1,"la1":30.2991,"la2":30.254,"lo1":-89.0895,"lo2":-89.0444,"dy":0.0017,"dx":0.0017,"nx":28,"ny":28,"refTime":"2026-01-29T03:00:00:Z","depth":0,"parameterNumber":2,"parameterNumberName":"U-component_of_WINDS"},"data":[0,0,0,0,0,0,0,0,0,0,0,0,0,0,0,0,0,0,0,0,0,0,0,0,0,0,0,0,0,0,0,0,0,0,0,0,0,0,0,0,0,0,0,0,0,0,0,0,0,0,0,0,0,0,0,0,0,0,0.5849,0.5851,0,0.5972,0.5974,0.5975,0.5962,0.596,0.5958,0.5956,0.6086,0.6091,0.6096,0,0,0,0,0,0,0,0,0,0,0,0,0,0.5607,0.5612,0.5849,0.5851,0.5852,0.5972,0.5974,0.5976,0.5962,0.596,0.5957,0.5955,0.6084,0.6091,0.6097,0,0,0,0,0,0,0,0,0,0,0,0,0,0.572,0.5613,0.5849,0.586,0.5862,0.5972,0.5974,0.5976,0.5963,0.596,0.5957,0.5954,0.6082,0.609,0.6098,0.6206,0,0,0.6122,0.6125,0,0,0,0,0,0,0,0,0.5713,0.5729,0.5857,0.5859,0.5862,0.5949,0.5936,0.6053,0.5963,0.5925,0.5956,0.5952,0.6043,0.6054,0.6084,0.6212,0.6217,0.6123,0.6128,0.6131,0.6133,0,0,0,0,0,0,0,0.5706,0.5723,0.5898,0.5859,0.5862,0.586,0.5873,0.5958,0.5999,0.5928,0.5927,0.5942,0.6044,0.6076,0.6087,0.6219,0.6122,0.613,0.6134,0.6138,0.6446,0.6449,0,0,0,0,0,0,0.5695,0.5717,0.5894,0.5902,0.5779,0.5867,0.5881,0.5924,0.5998,0.6006,0.5944,0.594,0.6064,0.6077,0.6091,0.6224,0.6131,0.6138,0.6143,0.6442,0.6446,0.645,0,0,0,0,0,0,0.5689,0.571,0.5889,0.5809,0.5832,0.5874,0.5922,0.5928,0.596,0.601,0.6018,0.5969,0.6062,0.608,0.6178,0.6229,0.6142,0.6149,0.6438,0.6443,0.6448,0.649,0,0,0,0,0,0,0.5683,0.5709,0.5749,0.581,0.5836,0.5972,0.5925,0.5932,0.5973,0.597,0.6036,0.6044,0.6061,0.6166,0.6186,0.6238,0.6155,0.6434,0.644,0.6447,0.6485,0.6496,0.6506,0,0,0,0,0,0.5674,0.5756,0.5751,0.5772,0.5887,0.5975,0.599,0.6007,0.5977,0.6019,0.6052,0.6042,0.622,0.6176,0.6198,0.6254,0.6431,0.6439,0.6446,0.648,0.6494,0.6506,0,0,0,0,0,0,0.57,0.5764,0.5759,0.5863,0.5914,0.5973,0.6025,0.6021,0.6082,0.6077,0.6097,0.6112,0.6211,0.6242,0.6192,0.6364,0.6321,0.6334,0.634,0.6353,0.6364,0.6355,0.6162,0,0,0,0,0,0.5718,0.5783,0.5836,0.5923,0.5948,0.5983,0.6022,0.6031,0.6084,0.6106,0.6145,0.6199,0.6268,0.6312,0.6377,0.6489,0.6505,0.6538,0.6549,0.6558,0.6569,0.6632,0.6649,0.6475,0.6475,0.6475,0,0,0.5756,0.5799,0.5838,0.5929,0.5969,0.6038,0.6001,0.6074,0.6126,0.6117,0.6212,0.6244,0.6305,0.6411,0.6459,0.644,0.662,0.6567,0.6574,0.658,0.6642,0.6658,0.6673,0.648,0.648,0.6479,0,0,0.586,0.5898,0.5975,0.6016,0.6078,0.61,0.6119,0.6179,0.6199,0.6295,0.629,0.6353,0.6469,0.6514,0.6552,0.6675,0.667,0.6696,0.6753,0.6815,0.6829,0.6841,0.6887,0.6903,0.6707,0.6707,0.6707,0,0.5899,0.6,0.6016,0.6091,0.6132,0.6127,0.6207,0.6246,0.6326,0.6356,0.6332,0.648,0.6521,0.6638,0.6668,0.6698,0.6722,0.6689,0.6825,0.6838,0.6849,0.6894,0.6911,0.671,0.671,0.6709,0.6709,0,0.6047,0.6118,0.6173,0.625,0.6297,0.6374,0.6403,0.645,0.6455,0.6481,0.658,0.6629,0.6705,0.6734,0.674,0.6853,0.6839,0.682,0.6779,0.6869,0.6911,0.6927,0.6714,0.6713,0.6712,0.6711,0,0,0.617,0.6255,0.6276,0.6312,0.638,0.6436,0.6514,0.6587,0.6628,0.6684,0.6751,0.6851,0.6834,0.6878,0.6889,0.6943,0.704,0.6918,0.692,0.6941,0.7171,0.7185,0.7204,0.7037,0.704,0.7042,0.7166,0,0.6282,0.6418,0.6436,0.6558,0.6625,0.6622,0.669,0.674,0.6767,0.6829,0.686,0.6931,0.6902,0.6929,0.6982,0.7017,0.7087,0.7008,0.7102,0.7105,0.7087,0.7226,0.7241,0.7356,0.7182,0.7185,0.7187,0,0.643,0.649,0.6619,0.6679,0.6708,0.6769,0.6839,0.6898,0.6956,0.6972,0.7021,0.7026,0.7109,0.7064,0.718,0.7126,0.7166,0.7189,0.7194,0.7204,0.7152,0.7242,0.7392,0.741,0.7213,0.7211,0.7209,0,0.651,0.6622,0.6714,0.6745,0.6817,0.6861,0.6893,0.6948,0.6992,0.7054,0.7083,0.7154,0.7194,0.725,0.7275,0.7239,0.7391,0.7347,0.7409,0.7408,0.7441,0.7439,0.7602,0.7464,0.7464,0.7464,0.7463,0,0.6634,0.6713,0.6751,0.6808,0.6897,0.6917,0.7006,0.7037,0.7086,0.7151,0.7153,0.7214,0.7242,0.7308,0.7329,0.7423,0.7441,0.7458,0.7463,0.7458,0.7456,0.7485,0.7478,0.7468,0.7467,0.7467,0.7466,0,0.6737,0.6766,0.6866,0.6927,0.6944,0.7008,0.7061,0.7117,0.7143,0.7225,0.7245,0.7288,0.7366,0.7396,0.7492,0.7506,0.7615,0.7613,0.7595,0.7597,0.7658,0.7652,0.7846,0.7873,0.7716,0.7718,0.7719,0,0.6815,0.6876,0.6943,0.6986,0.702,0.7088,0.7133,0.7156,0.7203,0.7275,0.7323,0.7401,0.7464,0.7589,0.763,0.7704,0.7704,0.7767,0.7715,0.771,0.7707,0.7704,0.7711,0.7777,0.7778,0.778,0.7781,0,0.695,0.6962,0.7025,0.7095,0.7149,0.7205,0.726,0.7295,0.7327,0.738,0.7459,0.7508,0.7606,0.7684,0.776,0.7796,0.7795,0.7797,0.7815,0.7812,0.78,0.7809,0.7623,0.7792,0.7791,0.779,0.779,0.7789,0.7045,0.7099,0.7156,0.7228,0.7271,0.7323,0.7379,0.7413,0.7479,0.7559,0.7569,0.7655,0.7714,0.7816,0.7855,0.7924,0.7908,0.7934,0.7941,0.7948,0.7953,0.7788,0.7938,0.7938,0.7938,0.7937,0.7937,0,0.7181,0.7218,0.7284,0.736,0.7418,0.741,0.7471,0.752,0.7595,0.7649,0.7711,0.7804,0.788,0.7927,0.8004,0.8051,0.8052,0.807,0.8068,0.8077,0.7962,0.7939,0.8068,0.8068,0.8068,0.8068,0.8068,0.8068,0.7259,0.7352,0.7371,0.7486,0.7523,0.7606,0.7641,0.769,0.7734,0.7837,0.7899,0.7929,0.7982,0.8063,0.8133,0.8145,0.8175,0.8194,0.8205,0.8098,0.8084,0.8071,0.805,0.82,0.82,0.8315,0.8316,0.8316]},{"header":{"parameterUnit":"m.s-1","parameterCategory":1,"la1":30.2991,"la2":30.254,"lo1":-89.0895,"lo2":-89.0444,"dy":0.0017,"dx":0.0017,"nx":28,"ny":28,"refTime":"2026-01-29T03:00:00:Z","depth":0,"parameterNumber":3,"parameterNumberName":"V-component_of_WINDS"},"data":[0,0,0,0,0,0,0,0,0,0,0,0,0,0,0,0,0,0,0,0,0,0,0,0,0,0,0,0,0,0,0,0,0,0,0,0,0,0,0,0,0,0,0,0,0,0,0,0,0,0,0,0,0,0,0,0,0,0,-2.576,-2.576,0,-2.5795,-2.5795,-2.5795,-2.5792,-2.5792,-2.5791,-2.5791,-2.5823,-2.5824,-2.5825,0,0,0,0,0,0,0,0,0,0,0,0,0,-2.5687,-2.5688,-2.576,-2.576,-2.5761,-2.5795,-2.5795,-2.5795,-2.5792,-2.5792,-2.5791,-2.5791,-2.5822,-2.5824,-2.5825,0,0,0,0,0,0,0,0,0,0,0,0,0,-2.5719,-2.5688,-2.576,-2.5763,-2.5764,-2.5794,-2.5795,-2.5796,-2.5793,-2.5792,-2.5791,-2.579,-2.5822,-2.5823,-2.5825,-2.5853,0,0,-2.5832,-2.5832,0,0,0,0,0,0,0,0,-2.5718,-2.5722,-2.5762,-2.5763,-2.5764,-2.5788,-2.5781,-2.5815,-2.5793,-2.5782,-2.5791,-2.579,-2.5812,-2.5814,-2.5822,-2.5855,-2.5856,-2.5832,-2.5833,-2.5834,-2.5834,0,0,0,0,0,0,0,-2.5715,-2.5721,-2.5774,-2.5763,-2.5764,-2.5762,-2.5766,-2.5787,-2.58,-2.5783,-2.5782,-2.5787,-2.5812,-2.582,-2.5823,-2.5857,-2.5832,-2.5833,-2.5835,-2.5835,-2.5912,-2.5912,0,0,0,0,0,0,-2.5713,-2.5719,-2.5772,-2.5775,-2.5739,-2.5764,-2.5768,-2.5781,-2.58,-2.5802,-2.5787,-2.5786,-2.5817,-2.5821,-2.5824,-2.5857,-2.5834,-2.5836,-2.5837,-2.5911,-2.5912,-2.5913,0,0,0,0,0,0,-2.5711,-2.5718,-2.5771,-2.5747,-2.5753,-2.5766,-2.5781,-2.5782,-2.5791,-2.5804,-2.5806,-2.5794,-2.5817,-2.5821,-2.5846,-2.5858,-2.5837,-2.5838,-2.591,-2.5911,-2.5912,-2.5923,0,0,0,0,0,0,-2.5709,-2.5717,-2.5729,-2.5747,-2.5755,-2.5794,-2.5782,-2.5784,-2.5795,-2.5794,-2.5811,-2.5813,-2.5817,-2.5843,-2.5848,-2.586,-2.584,-2.5909,-2.591,-2.5912,-2.5921,-2.5924,-2.5927,0,0,0,0,0,-2.5707,-2.573,-2.573,-2.5736,-2.577,-2.5794,-2.5798,-2.5804,-2.5796,-2.5807,-2.5815,-2.5812,-2.5856,-2.5846,-2.5851,-2.5864,-2.5908,-2.591,-2.5912,-2.592,-2.5924,-2.5927,0,0,0,0,0,0,-2.5712,-2.5732,-2.5732,-2.5763,-2.5777,-2.5794,-2.5808,-2.5807,-2.5823,-2.5822,-2.5826,-2.583,-2.5854,-2.5862,-2.585,-2.5891,-2.5881,-2.5884,-2.5885,-2.5889,-2.5891,-2.5888,-2.5842,0,0,0,0,0,-2.5717,-2.5736,-2.5753,-2.5778,-2.5785,-2.5795,-2.5806,-2.5809,-2.5823,-2.5829,-2.5839,-2.5852,-2.5868,-2.5879,-2.5895,-2.5923,-2.5925,-2.5934,-2.5937,-2.5939,-2.5941,-2.5955,-2.5958,-2.5919,-2.5919,-2.5919,0,0,-2.5726,-2.574,-2.5752,-2.5779,-2.579,-2.5809,-2.58,-2.582,-2.5834,-2.5832,-2.5855,-2.5863,-2.5878,-2.5904,-2.5915,-2.591,-2.5953,-2.5941,-2.5943,-2.5944,-2.5957,-2.5961,-2.5964,-2.592,-2.592,-2.592,0,0,-2.5754,-2.5767,-2.5788,-2.58,-2.5818,-2.5824,-2.583,-2.5847,-2.5852,-2.5876,-2.5875,-2.589,-2.5919,-2.5929,-2.5938,-2.5968,-2.5965,-2.5973,-2.5986,-2.5999,-2.6002,-2.6005,-2.6014,-2.6018,-2.5975,-2.5975,-2.5976,0,-2.5763,-2.5792,-2.5799,-2.5819,-2.583,-2.5831,-2.5852,-2.5862,-2.5884,-2.5891,-2.5885,-2.5921,-2.5931,-2.5958,-2.5966,-2.5974,-2.5978,-2.5971,-2.6002,-2.6004,-2.6007,-2.6016,-2.6019,-2.5976,-2.5976,-2.5976,-2.5976,0,-2.5802,-2.5822,-2.5837,-2.5859,-2.5872,-2.5892,-2.5901,-2.5913,-2.5914,-2.5921,-2.5945,-2.5957,-2.5975,-2.5982,-2.5983,-2.6009,-2.6005,-2.6001,-2.599,-2.6011,-2.602,-2.6023,-2.5977,-2.5977,-2.5977,-2.5977,0,0,-2.5833,-2.5858,-2.5863,-2.5873,-2.5892,-2.5907,-2.5927,-2.5945,-2.5955,-2.5969,-2.5985,-2.6009,-2.6005,-2.6015,-2.6018,-2.6029,-2.605,-2.6023,-2.6024,-2.6026,-2.6078,-2.608,-2.6084,-2.6049,-2.605,-2.6051,-2.6076,0,-2.5861,-2.5897,-2.5903,-2.5934,-2.5952,-2.5952,-2.5969,-2.5982,-2.5989,-2.6003,-2.601,-2.6027,-2.6021,-2.6027,-2.6038,-2.6046,-2.606,-2.6044,-2.6062,-2.6062,-2.6057,-2.6088,-2.6091,-2.6114,-2.6079,-2.608,-2.608,0,-2.5898,-2.5914,-2.5947,-2.5963,-2.5971,-2.5986,-2.6003,-2.6018,-2.6032,-2.6035,-2.6047,-2.6048,-2.6067,-2.6056,-2.6081,-2.607,-2.6077,-2.6082,-2.6083,-2.6084,-2.6072,-2.6088,-2.6122,-2.6125,-2.6086,-2.6085,-2.6085,0,-2.5915,-2.5945,-2.5969,-2.5977,-2.5996,-2.6007,-2.6015,-2.6029,-2.6039,-2.6053,-2.606,-2.6076,-2.6084,-2.6096,-2.6101,-2.6093,-2.6125,-2.6115,-2.6127,-2.6127,-2.6133,-2.6132,-2.6166,-2.614,-2.614,-2.614,-2.614,0,-2.5944,-2.5964,-2.5976,-2.599,-2.6012,-2.6019,-2.6039,-2.6047,-2.6059,-2.6074,-2.6075,-2.6088,-2.6095,-2.6108,-2.6112,-2.6131,-2.6135,-2.6138,-2.6138,-2.6137,-2.6136,-2.6141,-2.6139,-2.6141,-2.6141,-2.6141,-2.614,0,-2.5966,-2.5976,-2.6001,-2.6018,-2.6022,-2.6037,-2.6051,-2.6064,-2.607,-2.6089,-2.6093,-2.6103,-2.612,-2.6126,-2.6146,-2.6148,-2.617,-2.617,-2.6165,-2.6165,-2.6176,-2.6174,-2.6213,-2.6218,-2.619,-2.619,-2.6191,0,-2.5984,-2.5999,-2.6018,-2.6028,-2.6037,-2.6054,-2.6064,-2.6071,-2.6082,-2.6099,-2.6109,-2.6126,-2.6139,-2.6165,-2.6173,-2.6188,-2.6187,-2.62,-2.6189,-2.6187,-2.6185,-2.6184,-2.6185,-2.6201,-2.6201,-2.6202,-2.6202,0,-2.6013,-2.6017,-2.6033,-2.6051,-2.6064,-2.6077,-2.6091,-2.6099,-2.6108,-2.6119,-2.6137,-2.6147,-2.6167,-2.6183,-2.6198,-2.6205,-2.6204,-2.6205,-2.6209,-2.6207,-2.6203,-2.6203,-2.6169,-2.6204,-2.6204,-2.6204,-2.6204,-2.6204,-2.6032,-2.6045,-2.606,-2.6078,-2.6089,-2.6101,-2.6114,-2.6123,-2.6137,-2.6155,-2.6158,-2.6176,-2.6188,-2.6209,-2.6216,-2.6229,-2.6226,-2.6231,-2.6232,-2.6233,-2.6233,-2.6202,-2.6232,-2.6232,-2.6232,-2.6232,-2.6232,0,-2.606,-2.607,-2.6086,-2.6105,-2.6119,-2.6118,-2.6133,-2.6144,-2.616,-2.6172,-2.6185,-2.6204,-2.622,-2.6229,-2.6244,-2.6252,-2.6252,-2.6256,-2.6255,-2.6256,-2.6236,-2.6231,-2.6256,-2.6256,-2.6256,-2.6256,-2.6256,-2.6256,-2.6077,-2.6098,-2.6104,-2.613,-2.6139,-2.6158,-2.6166,-2.6177,-2.6186,-2.6208,-2.6221,-2.6227,-2.6238,-2.6254,-2.6267,-2.6269,-2.6274,-2.6278,-2.6279,-2.626,-2.6258,-2.6255,-2.625,-2.6279,-2.6279,-2.6298,-2.6299,-2.6299]}]]